COSMOS 2500 (755)

Last updated on Mon Oct 27 2025 00:03:26 GMT+0000 (Coordinated Universal Time)

1 40001U 14032A 25297.94277044 -.00000035 00000+0 00000+0 0 9994 2 40001 65.3698 321.6928 0009232 214.4431 145.5480 2.13106048 88446
UTC large
Height (km)
Speed (km/s)
/
Latitude / Longitude
Inclination (degrees)
Orbital Period (minutes)
Azimuth
Elevation
Range (km)
Doppler Factor

Next 0 passes for location: London (51.5072 / 0.1276)

Sorry there are no passes over London.